Time,TemperatureF,DewpointF,PressureIn,WindDirection,WindDirectionDegrees,WindSpeedMPH,WindSpeedGustMPH,Humidity,HourlyPrecipIn,Conditions,Clouds,dailyrainin,SoftwareType,DateUTC
2013-04-15 00:00:00,69.0,68.0,29.81,North,0,0.0,1.0,97,-99.99,,,-99.99,,2013-04-15 05:00:00,
2013-04-15 00:22:00,69.0,68.0,29.81,North,0,0.0,1.0,97,-99.99,,,-99.99,,2013-04-15 05:22:00,
2013-04-15 00:32:00,69.0,68.0,29.81,North,0,0.0,1.0,97,-99.99,,,-99.99,,2013-04-15 05:32:00,
2013-04-15 00:42:00,69.0,68.0,29.81,North,0,0.0,1.0,97,-99.99,,,-99.99,,2013-04-15 05:42:00,
2013-04-15 00:51:00,69.0,68.0,29.81,North,0,0.0,1.0,97,-99.99,,,-99.99,,2013-04-15 05:51:00,
2013-04-15 01:00:00,69.0,68.0,29.83,East,90,5.0,5.0,98,-99.99,,,-99.99,,2013-04-15 06:00:00,
2013-04-15 01:21:00,69.0,68.0,29.83,East,90,5.0,5.0,98,-99.99,,,-99.99,,2013-04-15 06:21:00,
2013-04-15 01:32:00,69.0,68.0,29.83,East,90,5.0,5.0,98,-99.99,,,-99.99,,2013-04-15 06:32:00,
2013-04-15 01:42:00,69.0,68.0,29.83,East,90,5.0,5.0,98,-99.99,,,-99.99,,2013-04-15 06:42:00,
2013-04-15 01:51:00,69.0,68.0,29.83,East,90,5.0,5.0,98,-99.99,,,-99.99,,2013-04-15 06:51:00,
2013-04-15 02:00:00,69.0,68.0,29.84,East,90,7.0,8.0,99,-99.99,,,-99.99,,2013-04-15 07:00:00,
2013-04-15 02:42:00,69.0,68.0,29.84,East,90,7.0,8.0,99,-99.99,,,-99.99,,2013-04-15 07:42:00,
2013-04-15 02:52:00,69.0,68.0,29.84,East,90,7.0,8.0,99,-99.99,,,-99.99,,2013-04-15 07:52:00,
2013-04-15 03:00:00,69.0,68.0,29.83,ENE,60,5.0,5.0,96,-99.99,,,-99.99,,2013-04-15 08:00:00,
2013-04-15 03:21:00,69.0,68.0,29.83,ENE,60,5.0,5.0,96,-99.99,,,-99.99,,2013-04-15 08:21:00,
2013-04-15 03:32:00,69.0,68.0,29.83,ENE,60,5.0,5.0,96,-99.99,,,-99.99,,2013-04-15 08:32:00,
2013-04-15 03:42:00,69.0,68.0,29.83,ENE,60,5.0,5.0,96,-99.99,,,-99.99,,2013-04-15 08:42:00,
2013-04-15 03:51:00,69.0,68.0,29.83,ENE,60,5.0,5.0,96,-99.99,,,-99.99,,2013-04-15 08:51:00,
2013-04-15 04:00:00,69.0,68.0,29.85,ENE,70,5.0,6.0,99,-99.99,,,-99.99,,2013-04-15 09:00:00,
2013-04-15 04:21:00,69.0,68.0,29.85,ENE,70,5.0,6.0,99,-99.99,,,-99.99,,2013-04-15 09:21:00,
2013-04-15 04:32:00,69.0,68.0,29.85,ENE,70,5.0,6.0,99,-99.99,,,-99.99,,2013-04-15 09:32:00,
2013-04-15 04:42:00,69.0,68.0,29.85,ENE,70,5.0,6.0,99,-99.99,,,-99.99,,2013-04-15 09:42:00,
2013-04-15 04:52:00,69.0,68.0,29.85,ENE,70,5.0,6.0,99,-99.99,,,-99.99,,2013-04-15 09:52:00,
2013-04-15 05:00:00,68.0,68.0,29.86,East,90,7.0,7.0,100,-99.99,,,-99.99,,2013-04-15 10:00:00,
2013-04-15 05:22:00,68.0,68.0,29.86,East,90,7.0,7.0,100,-99.99,,,-99.99,,2013-04-15 10:22:00,
2013-04-15 05:32:00,68.0,68.0,29.86,East,90,7.0,7.0,100,-99.99,,,-99.99,,2013-04-15 10:32:00,
2013-04-15 05:42:00,68.0,68.0,29.86,East,90,7.0,7.0,100,-99.99,,,-99.99,,2013-04-15 10:42:00,
2013-04-15 05:52:00,68.0,68.0,29.86,East,90,7.0,7.0,100,-99.99,,,-99.99,,2013-04-15 10:52:00,
2013-04-15 06:00:00,68.0,68.0,29.89,East,100,5.0,6.0,100,-99.99,,,-99.99,,2013-04-15 11:00:00,
2013-04-15 06:21:00,68.0,68.0,29.89,East,100,5.0,6.0,100,-99.99,,,-99.99,,2013-04-15 11:21:00,
2013-04-15 06:31:00,68.0,68.0,29.89,East,100,5.0,6.0,100,-99.99,,,-99.99,,2013-04-15 11:31:00,
2013-04-15 06:42:00,68.0,68.0,29.89,East,100,5.0,6.0,100,-99.99,,,-99.99,,2013-04-15 11:42:00,
2013-04-15 06:52:00,68.0,68.0,29.89,East,100,5.0,6.0,100,-99.99,,,-99.99,,2013-04-15 11:52:00,
2013-04-15 07:00:00,69.0,69.0,29.91,East,100,9.0,9.0,100,-99.99,,,-99.99,,2013-04-15 12:00:00,
2013-04-15 07:32:00,69.0,69.0,29.91,East,100,9.0,9.0,100,-99.99,,,-99.99,,2013-04-15 12:32:00,
2013-04-15 07:42:00,69.0,69.0,29.91,East,100,9.0,9.0,100,-99.99,,,-99.99,,2013-04-15 12:42:00,
2013-04-15 07:52:00,69.0,69.0,29.91,East,100,9.0,9.0,100,-99.99,,,-99.99,,2013-04-15 12:52:00,
2013-04-15 08:00:00,69.0,69.0,29.93,East,100,8.0,9.0,100,-99.99,,,-99.99,,2013-04-15 13:00:00,
2013-04-15 08:21:00,69.0,69.0,29.93,East,100,8.0,9.0,100,-99.99,,,-99.99,,2013-04-15 13:21:00,
2013-04-15 08:31:00,69.0,69.0,29.93,East,100,8.0,9.0,100,-99.99,,,-99.99,,2013-04-15 13:31:00,
2013-04-15 08:41:00,69.0,69.0,29.93,East,100,8.0,9.0,100,-99.99,,,-99.99,,2013-04-15 13:41:00,
2013-04-15 08:52:00,69.0,69.0,29.93,East,100,8.0,9.0,100,-99.99,,,-99.99,,2013-04-15 13:52:00,
2013-04-15 09:00:00,69.0,69.0,29.95,East,100,14.0,15.0,98,-99.99,,,-99.99,,2013-04-15 14:00:00,
2013-04-15 09:21:00,69.0,69.0,29.95,East,100,14.0,15.0,98,-99.99,,,-99.99,,2013-04-15 14:21:00,
2013-04-15 09:31:00,69.0,69.0,29.95,East,100,14.0,15.0,98,-99.99,,,-99.99,,2013-04-15 14:31:00,
2013-04-15 09:52:00,69.0,69.0,29.95,East,100,14.0,15.0,98,-99.99,,,-99.99,,2013-04-15 14:52:00,
2013-04-15 10:00:00,70.0,69.0,29.95,ESE,110,11.0,13.0,97,-99.99,,,-99.99,,2013-04-15 15:00:00,
2013-04-15 10:33:00,70.0,69.0,29.95,ESE,110,11.0,13.0,97,-99.99,,,-99.99,,2013-04-15 15:33:00,
2013-04-15 10:42:00,70.0,69.0,29.95,ESE,110,11.0,13.0,97,-99.99,,,-99.99,,2013-04-15 15:42:00,
2013-04-15 10:53:00,70.0,69.0,29.95,ESE,110,11.0,13.0,97,-99.99,,,-99.99,,2013-04-15 15:53:00,
2013-04-15 11:00:00,71.0,69.0,29.96,ESE,110,16.0,18.0,95,-99.99,,,-99.99,,2013-04-15 16:00:00,
2013-04-15 11:22:00,71.0,69.0,29.96,ESE,110,16.0,18.0,95,-99.99,,,-99.99,,2013-04-15 16:22:00,
2013-04-15 11:32:00,71.0,69.0,29.96,ESE,110,16.0,18.0,95,-99.99,,,-99.99,,2013-04-15 16:32:00,
2013-04-15 11:52:00,71.0,69.0,29.96,ESE,110,16.0,18.0,95,-99.99,,,-99.99,,2013-04-15 16:52:00,
2013-04-15 12:00:00,71.0,69.0,29.97,ESE,110,15.0,17.0,94,-99.99,,,-99.99,,2013-04-15 17:00:00,
2013-04-15 12:21:00,71.0,69.0,29.97,ESE,110,15.0,17.0,94,-99.99,,,-99.99,,2013-04-15 17:21:00,
2013-04-15 12:32:00,71.0,69.0,29.97,ESE,110,15.0,17.0,94,-99.99,,,-99.99,,2013-04-15 17:32:00,
2013-04-15 12:42:00,71.0,69.0,29.97,ESE,110,15.0,17.0,94,-99.99,,,-99.99,,2013-04-15 17:42:00,
2013-04-15 12:51:00,71.0,69.0,29.97,ESE,110,15.0,17.0,94,-99.99,,,-99.99,,2013-04-15 17:51:00,
2013-04-15 13:00:00,71.0,69.0,29.97,ESE,110,13.0,15.0,94,-99.99,,,-99.99,,2013-04-15 18:00:00,
2013-04-15 13:22:00,71.0,69.0,29.97,ESE,110,13.0,15.0,94,-99.99,,,-99.99,,2013-04-15 18:22:00,
2013-04-15 13:32:00,71.0,69.0,29.97,ESE,110,13.0,15.0,94,-99.99,,,-99.99,,2013-04-15 18:32:00,
2013-04-15 13:41:00,71.0,69.0,29.97,ESE,110,13.0,15.0,94,-99.99,,,-99.99,,2013-04-15 18:41:00,
2013-04-15 13:51:00,71.0,69.0,29.97,ESE,110,13.0,15.0,94,-99.99,,,-99.99,,2013-04-15 18:51:00,
2013-04-15 14:00:00,71.0,70.0,29.96,East,100,13.0,14.0,94,-99.99,,,-99.99,,2013-04-15 19:00:00,
2013-04-15 14:21:00,71.0,70.0,29.96,East,100,13.0,14.0,94,-99.99,,,-99.99,,2013-04-15 19:21:00,
2013-04-15 14:32:00,71.0,70.0,29.96,East,100,13.0,14.0,94,-99.99,,,-99.99,,2013-04-15 19:32:00,
2013-04-15 14:42:00,71.0,70.0,29.96,East,100,13.0,14.0,94,-99.99,,,-99.99,,2013-04-15 19:42:00,
2013-04-15 14:52:00,71.0,70.0,29.96,East,100,13.0,14.0,94,-99.99,,,-99.99,,2013-04-15 19:52:00,
2013-04-15 15:00:00,71.0,69.0,29.95,East,100,16.0,17.0,94,-99.99,,,-99.99,,2013-04-15 20:00:00,
2013-04-15 15:21:00,71.0,69.0,29.95,East,100,16.0,17.0,94,-99.99,,,-99.99,,2013-04-15 20:21:00,
2013-04-15 15:31:00,71.0,69.0,29.95,East,100,16.0,17.0,94,-99.99,,,-99.99,,2013-04-15 20:31:00,
2013-04-15 15:41:00,71.0,69.0,29.95,East,100,16.0,17.0,94,-99.99,,,-99.99,,2013-04-15 20:41:00,
2013-04-15 15:51:00,71.0,69.0,29.95,East,100,16.0,17.0,94,-99.99,,,-99.99,,2013-04-15 20:51:00,
2013-04-15 16:00:00,71.0,69.0,29.95,East,100,16.0,17.0,94,-99.99,,,-99.99,,2013-04-15 21:00:00,
2013-04-15 16:21:00,71.0,69.0,29.95,East,100,16.0,17.0,94,-99.99,,,-99.99,,2013-04-15 21:21:00,
2013-04-15 16:32:00,71.0,69.0,29.95,East,100,16.0,17.0,94,-99.99,,,-99.99,,2013-04-15 21:32:00,
2013-04-15 16:42:00,71.0,69.0,29.95,East,100,16.0,17.0,94,-99.99,,,-99.99,,2013-04-15 21:42:00,
2013-04-15 16:52:00,71.0,69.0,29.95,East,100,16.0,17.0,94,-99.99,,,-99.99,,2013-04-15 21:52:00,
2013-04-15 17:00:00,71.0,70.0,29.95,ESE,110,18.0,22.0,95,-99.99,,,-99.99,,2013-04-15 22:00:00,
2013-04-15 17:32:00,71.0,70.0,29.95,ESE,110,18.0,22.0,95,-99.99,,,-99.99,,2013-04-15 22:32:00,
2013-04-15 17:42:00,71.0,70.0,29.95,ESE,110,18.0,22.0,95,-99.99,,,-99.99,,2013-04-15 22:42:00,
2013-04-15 17:52:00,71.0,70.0,29.95,ESE,110,18.0,22.0,95,-99.99,,,-99.99,,2013-04-15 22:52:00,
2013-04-15 18:00:00,71.0,70.0,29.96,ESE,110,16.0,17.0,96,-99.99,,,-99.99,,2013-04-15 23:00:00,
2013-04-15 18:21:00,71.0,70.0,29.96,ESE,110,16.0,17.0,96,-99.99,,,-99.99,,2013-04-15 23:21:00,
2013-04-15 18:31:00,71.0,70.0,29.96,ESE,110,16.0,17.0,96,-99.99,,,-99.99,,2013-04-15 23:31:00,
2013-04-15 18:41:00,71.0,70.0,29.96,ESE,110,16.0,17.0,96,-99.99,,,-99.99,,2013-04-15 23:41:00,
2013-04-15 18:51:00,71.0,70.0,29.96,ESE,110,16.0,17.0,96,-99.99,,,-99.99,,2013-04-15 23:51:00,
2013-04-15 19:00:00,71.0,70.0,29.97,ESE,110,17.0,18.0,96,-99.99,,,-99.99,,2013-04-16 00:00:00,
2013-04-15 19:21:00,71.0,70.0,29.97,ESE,110,17.0,18.0,96,-99.99,,,-99.99,,2013-04-16 00:21:00,
2013-04-15 19:31:00,71.0,70.0,29.97,ESE,110,17.0,18.0,96,-99.99,,,-99.99,,2013-04-16 00:31:00,
2013-04-15 19:41:00,71.0,70.0,29.97,ESE,110,17.0,18.0,96,-99.99,,,-99.99,,2013-04-16 00:41:00,
2013-04-15 19:51:00,71.0,70.0,29.97,ESE,110,17.0,18.0,96,-99.99,,,-99.99,,2013-04-16 00:51:00,
2013-04-15 20:00:00,71.0,70.0,29.98,ESE,120,18.0,20.0,97,-99.99,,,-99.99,,2013-04-16 01:00:00,
2013-04-15 20:21:00,71.0,70.0,29.98,ESE,120,18.0,20.0,97,-99.99,,,-99.99,,2013-04-16 01:21:00,
2013-04-15 20:31:00,71.0,70.0,29.98,ESE,120,18.0,20.0,97,-99.99,,,-99.99,,2013-04-16 01:31:00,
2013-04-15 20:41:00,71.0,70.0,29.98,ESE,120,18.0,20.0,97,-99.99,,,-99.99,,2013-04-16 01:41:00,
2013-04-15 20:51:00,71.0,70.0,29.98,ESE,120,18.0,20.0,97,-99.99,,,-99.99,,2013-04-16 01:51:00,
2013-04-15 21:00:00,71.0,70.0,30.00,ESE,120,15.0,16.0,96,-99.99,,,-99.99,,2013-04-16 02:00:00,
2013-04-15 21:21:00,71.0,70.0,30.00,ESE,120,15.0,16.0,96,-99.99,,,-99.99,,2013-04-16 02:21:00,
2013-04-15 21:31:00,71.0,70.0,30.00,ESE,120,15.0,16.0,96,-99.99,,,-99.99,,2013-04-16 02:31:00,
2013-04-15 21:42:00,71.0,70.0,30.00,ESE,120,15.0,16.0,96,-99.99,,,-99.99,,2013-04-16 02:42:00,
2013-04-15 21:51:00,71.0,70.0,30.00,ESE,120,15.0,16.0,96,-99.99,,,-99.99,,2013-04-16 02:51:00,
2013-04-15 22:00:00,71.0,69.0,30.01,ESE,120,15.0,16.0,95,-99.99,,,-99.99,,2013-04-16 03:00:00,
2013-04-15 22:21:00,71.0,69.0,30.01,ESE,120,15.0,16.0,95,-99.99,,,-99.99,,2013-04-16 03:21:00,
2013-04-15 22:32:00,71.0,69.0,30.01,ESE,120,15.0,16.0,95,-99.99,,,-99.99,,2013-04-16 03:32:00,
2013-04-15 22:43:00,71.0,69.0,30.01,ESE,120,15.0,16.0,95,-99.99,,,-99.99,,2013-04-16 03:43:00,
2013-04-15 22:52:00,71.0,69.0,30.01,ESE,120,15.0,16.0,95,-99.99,,,-99.99,,2013-04-16 03:52:00,
2013-04-15 23:00:00,71.0,70.0,30.02,ESE,120,13.0,15.0,95,-99.99,,,-99.99,,2013-04-16 04:00:00,
2013-04-15 23:32:00,71.0,70.0,30.02,ESE,120,13.0,15.0,95,-99.99,,,-99.99,,2013-04-16 04:32:00,
2013-04-15 23:42:00,71.0,70.0,30.02,ESE,120,13.0,15.0,95,-99.99,,,-99.99,,2013-04-16 04:42:00,
2013-04-15 23:52:00,71.0,70.0,30.02,ESE,120,13.0,15.0,95,-99.99,,,-99.99,,2013-04-16 04:52:00,